Benton Harbor, MI

2:29 AM EST on January 19, 2017 (GMT -0500)
Southwest Michigan Regional

Weather History for KBEH - March, 2013

Change the Weather History Date:

Tuesday, March 19, 2013

  Actual Average Record
Temperature  
Mean Temperature 26 °F -  
Max Temperature 33 °F 45 °F 78 °F (2012)
Min Temperature 21 °F 28 °F 14 °F (1950)
Degree Days  
Heating Degree Days 38    
Moisture  
Dew Point 15 °F    
Average Humidity 62    
Maximum Humidity 74    
Minimum Humidity 50    
Precipitation  
Precipitation 0.00 in - - ()
Sea Level Pressure  
Sea Level Pressure 29.90 in    
Wind  
Wind Speed 24 mph (West)    
Max Wind Speed 31 mph    
Max Gust Speed 40 mph    
Visibility 9 miles    
Events Snow    
Averages and records for this station are not official NWS values.
T = Trace of Precipitation, MM = Missing Value Source: NWS Daily Summary

Daily Weather History Graph

Daily Weather History Graph

Search for Another Location

Airport or City:

Trip Planner

Search our weather history database for the weather conditions in past years. The results will help you decide how hot, cold, wet, or windy it might be!

Date:

Astronomy

Mar. 19, 2013 Rise Set
Actual Time 7:50 AM EDT 7:57 PM EDT
Civil Twilight 7:22 AM EDT 8:25 PM EDT
Nautical Twilight 6:49 AM EDT 8:57 PM EDT
Astronomical Twilight 6:16 AM EDT 9:31 PM EDT
Moon 12:34 PM EDT 2:49 AM EDT
Length of Visible Light 13h 02m
Length of Day
12h 06m
Waxing Crescent, 49% of the Moon is Illuminated
Mar 19
Waxing Crescent
Mar 19
First Quarter
Mar 27
Full
Apr 3
Last Quarter
Apr 10
New

Hourly Weather History & Observations

Time (EDT) Temp. Windchill Dew Point Humidity Pressure Visibility Wind Dir Wind Speed Gust Speed Precip Events Conditions
12:53 AM 26.1 °F 11.3 °F 17.1 °F 69% 29.76 in 10.0 mi West 23.0 mph 34.5 mph N/A   Overcast
1:53 AM 25.0 °F 9.5 °F 16.0 °F 69% 29.77 in 10.0 mi West 24.2 mph 32.2 mph N/A   Overcast
2:53 AM 24.1 °F 9.0 °F 15.1 °F 69% 29.78 in 9.0 mi West 21.9 mph 33.4 mph 0.00 in   Overcast
3:53 AM 24.1 °F 9.0 °F 15.1 °F 69% 29.78 in 10.0 mi West 21.9 mph 29.9 mph 0.00 in Snow Light Snow
4:53 AM 21.9 °F 5.8 °F 12.9 °F 68% 29.78 in 10.0 mi West 23.0 mph 31.1 mph 0.00 in   Overcast
5:53 AM 21.9 °F 5.5 °F 14.0 °F 72% 29.80 in 8.0 mi WSW 24.2 mph 33.4 mph 0.00 in Snow Light Snow
6:53 AM 21.9 °F 5.1 °F 12.9 °F 68% 29.81 in 7.0 mi West 25.3 mph 34.5 mph 0.00 in Snow Light Snow
7:53 AM 21.0 °F 4.3 °F 12.9 °F 71% 29.83 in 7.0 mi West 24.2 mph 33.4 mph 0.00 in Snow Light Snow
8:53 AM 21.0 °F 3.6 °F 14.0 °F 74% 29.83 in 3.0 mi West 26.5 mph 32.2 mph 0.00 in Snow Light Snow
9:53 AM 21.0 °F 3.6 °F 14.0 °F 74% 29.84 in 5.0 mi West 26.5 mph 34.5 mph 0.00 in Snow Light Snow
10:53 AM 21.9 °F 3.9 °F 14.0 °F 72% 29.86 in 7.0 mi West 29.9 mph 35.7 mph 0.00 in Snow Light Snow
11:53 AM 23.0 °F 5.7 °F 14.0 °F 68% 29.88 in 9.0 mi West 28.8 mph 35.7 mph 0.00 in Snow Light Snow
12:53 PM 25.0 °F 9.5 °F 15.1 °F 66% 29.91 in 10.0 mi West 24.2 mph 35.7 mph 0.00 in   Overcast
1:53 PM 28.0 °F 12.5 °F 15.1 °F 58% 29.93 in 10.0 mi West 28.8 mph 40.3 mph N/A   Overcast
2:32 PM 28.4 °F 13.8 °F 15.8 °F 59% 29.91 in 10.0 mi West 25.3 mph 40.3 mph N/A   Overcast
2:53 PM 28.9 °F 13.2 °F 15.1 °F 56% 29.94 in 10.0 mi West 31.1 mph 40.3 mph N/A   Overcast
3:53 PM 30.9 °F 17.2 °F 15.1 °F 52% 29.95 in 10.0 mi West 25.3 mph 39.1 mph N/A   Partly Cloudy
4:53 PM 32.0 °F 18.6 °F 16.0 °F 52% 29.97 in 10.0 mi West 25.3 mph 33.4 mph N/A   Clear
5:53 PM 32.0 °F 18.9 °F 15.1 °F 50% 29.99 in 10.0 mi West 24.2 mph 32.2 mph N/A   Clear
6:53 PM 32.0 °F 18.9 °F 16.0 °F 52% 29.99 in 10.0 mi West 24.2 mph 35.7 mph N/A   Clear
7:53 PM 30.9 °F 18.1 °F 16.0 °F 54% 30.01 in 10.0 mi West 21.9 mph 31.1 mph N/A   Clear
8:53 PM 30.9 °F 16.9 °F 16.0 °F 54% 30.01 in 10.0 mi West 26.5 mph 33.4 mph N/A   Clear
9:53 PM 30.9 °F 17.2 °F 16.0 °F 54% 30.03 in 10.0 mi West 25.3 mph 38.0 mph N/A   Scattered Clouds
10:53 PM 30.0 °F 16.6 °F 16.0 °F 56% 30.05 in 10.0 mi West 23.0 mph 33.4 mph N/A   Clear
11:53 PM 28.9 °F 16.1 °F 15.1 °F 56% 30.05 in 10.0 mi West 19.6 mph 25.3 mph N/A   Partly Cloudy